Torna al catalogo

ONEWEB-0243

AttivoComunicazioniPO
NORAD 48774·PAYLOAD·🇬🇧 United Kingdom

Lanciato May 28, 2021 da Vostochny Cosmodrome

Loading…

Prossimi Passaggi (prossime 24 ore)

TLE

AggiornatoSource: CelesTrak SupGP

Epoca: Sep 14, 2026, 07:16 UTC

1 48774C 21045H   26257.30326806  .00002383  00000+0  63388-2 0  2574
2 48774  87.8972 241.4470 0002494  79.4668  30.0012 13.15541638    18

Traccia ONEWEB-0243 in tempo reale con AllMySat

Download on the App Store